AWQ506 WADD-WSSS

Flight info

Callsign AWQ506
Flight time N/A
Altitude 36000
Route BORGI DCT UDONO M635 SURGA T23 UGEBO UGEBO1B
Aircraft A320/M-SDE3FGHIRWY/LB1

Departure

Time 2026-05-05 10:08
Airport Denpasar I Gusti Ngurah Rai International Airport (WADD)

Arrival

Time N/A
Airport Singapore Changi Airport (WSSS)
Time Latitude Longitude Altitude Speed Heading
2026-05-05 09:46 -8.74571 115.16340 33 ft 0 kts 358°
2026-05-05 10:00 -8.74588 115.16341 33 ft 4 kts 356°
2026-05-05 10:00 -8.74615 115.16344 33 ft 4 kts 353°
2026-05-05 10:00 -8.74642 115.16347 32 ft 4 kts 349°
2026-05-05 10:00 -8.74668 115.16354 33 ft 4 kts 338°
2026-05-05 10:01 -8.74690 115.16367 32 ft 4 kts 300°
2026-05-05 10:01 -8.74694 115.16376 32 ft 0 kts 268°
2026-05-05 10:03 -8.74694 115.16369 32 ft 5 kts 268°
2026-05-05 10:04 -8.74696 115.16319 31 ft 12 kts 267°
2026-05-05 10:04 -8.74700 115.16235 31 ft 11 kts 268°
2026-05-05 10:04 -8.74704 115.16137 33 ft 17 kts 268°
2026-05-05 10:04 -8.74708 115.16027 33 ft 15 kts 268°
2026-05-05 10:05 -8.74713 115.15925 33 ft 16 kts 267°
2026-05-05 10:05 -8.74717 115.15811 32 ft 15 kts 268°
2026-05-05 10:05 -8.74722 115.15691 32 ft 19 kts 267°
2026-05-05 10:05 -8.74726 115.15566 32 ft 16 kts 268°
2026-05-05 10:06 -8.74728 115.15477 32 ft 12 kts 268°
2026-05-05 10:06 -8.74749 115.15406 31 ft 10 kts 227°
2026-05-05 10:06 -8.74817 115.15391 30 ft 12 kts 179°
2026-05-05 10:06 -8.74890 115.15399 28 ft 6 kts 156°
2026-05-05 10:07 -8.74896 115.15428 29 ft 4 kts 88°
2026-05-05 10:07 -8.74891 115.15599 29 ft 58 kts 88°
2026-05-05 10:07 -8.74865 115.16236 28 ft 120 kts 87°
2026-05-05 10:07 -8.74828 115.17255 32 ft 168 kts 90°
2026-05-05 10:08 -8.74799 115.18455 540 ft 171 kts 90°
2026-05-05 10:08 -8.74751 115.19659 1264 ft 171 kts 89°
2026-05-05 10:08 -8.74697 115.20859 1884 ft 174 kts 89°
2026-05-05 10:08 -8.74642 115.22143 2130 ft 194 kts 89°
2026-05-05 10:09 -8.74580 115.23594 2296 ft 219 kts 89°
2026-05-05 10:09 -8.74510 115.25213 2562 ft 243 kts 88°
2026-05-05 10:09 -8.74435 115.26979 3023 ft 258 kts 88°
2026-05-05 10:09 -8.74359 115.28810 3736 ft 263 kts 88°
2026-05-05 10:10 -8.74282 115.30669 4483 ft 266 kts 88°
2026-05-05 10:10 -8.74206 115.32551 5225 ft 270 kts 88°
2026-05-05 10:10 -8.74125 115.34462 5947 ft 274 kts 88°
2026-05-05 10:10 -8.74044 115.36396 6671 ft 277 kts 88°
2026-05-05 10:11 -8.73966 115.38326 7370 ft 280 kts 88°
2026-05-05 10:11 -8.73884 115.40333 8076 ft 283 kts 88°
2026-05-05 10:11 -8.73803 115.42330 8768 ft 286 kts 88°
2026-05-05 10:11 -8.73724 115.44321 9408 ft 289 kts 88°
2026-05-05 10:12 -8.73642 115.46361 10038 ft 292 kts 88°
2026-05-05 10:12 -8.73457 115.48461 10272 ft 311 kts 79°
2026-05-05 10:12 -8.72805 115.50620 10407 ft 332 kts 66°
2026-05-05 10:12 -8.71612 115.52664 10734 ft 344 kts 52°
2026-05-05 10:13 -8.69971 115.54447 11249 ft 349 kts 45°
2026-05-05 10:13 -8.68236 115.56176 11833 ft 352 kts 45°
2026-05-05 10:13 -8.66491 115.57925 12397 ft 355 kts 45°
2026-05-05 10:13 -8.64733 115.59696 12953 ft 358 kts 45°
2026-05-05 10:14 -8.62956 115.61485 13487 ft 362 kts 45°
2026-05-05 10:14 -8.61770 115.62678 13839 ft 365 kts 45°
2026-05-05 10:14 -8.59051 115.64733 14509 ft 370 kts 25°
2026-05-05 10:14 -8.57447 115.65322 14829 ft 372 kts 13°
2026-05-05 10:15 -8.54864 115.65515 15322 ft 376 kts 353°